• In Czech Republic
  • List of Countries
  • For 7 days
  • Water Temperature
  • Satellite Maps
  • Weather Map
  • Weather Widgets
  • user-avatar
    Login

    Hourly Weather Little Rock

    Today, 22 October, Sunday

    Time Temperature Precipitation Wind Pressure Humidity
    00:00 +24°C° 0 mm 6 mps 753 mmHg 84%
    01:00 +24°C° 0.6 mm 6 mps 753 mmHg 85%
    02:00 +24°C° 0.6 mm 6 mps 753 mmHg 87%
    03:00 +23°C° 0.6 mm 6 mps 752 mmHg 88%
    04:00 +23°C° 5.7 mm 6 mps 753 mmHg 89%
    05:00 +23°C° 5.7 mm 6 mps 753 mmHg 89%
    06:00 +22°C° 5.7 mm 6 mps 753 mmHg 90%
    07:00 +22°C° 3.1 mm 4 mps 754 mmHg 89%
    08:00 +21°C° 3.1 mm 3 mps 754 mmHg 89%
    09:00 +22°C° 3.1 mm 1 mps 755 mmHg 89%
    10:00 +21°C° 0.1 mm 2 mps 755 mmHg 85%
    11:00 +21°C° 0.1 mm 2 mps 755 mmHg 82%
    12:00 +23°C° 0.1 mm 2 mps 756 mmHg 78%
    13:00 +21°C° 0.1 mm 3 mps 755 mmHg 77%
    14:00 +21°C° 0.1 mm 3 mps 755 mmHg 77%
    15:00 +21°C° 0.1 mm 3 mps 755 mmHg 76%
    16:00 +20°C° 0.2 mm 3 mps 755 mmHg 78%
    17:00 +19°C° 0.2 mm 3 mps 756 mmHg 79%
    18:00 +18°C° 0.2 mm 2 mps 756 mmHg 81%
    19:00 +17°C° 0.1 mm 3 mps 757 mmHg 79%
    20:00 +17°C° 0.1 mm 3 mps 757 mmHg 77%
    21:00 +16°C° 0.1 mm 3 mps 757 mmHg 75%
    22:00 +14°C° 0 mm 3 mps 757 mmHg 73%
    23:00 +13°C° 0 mm 3 mps 757 mmHg 72%

    Tomorrow, 23 October, Monday

    Time Temperature Precipitation Wind Pressure Humidity
    00:00 +13°C° 0 mm 3 mps 757 mmHg 70%
    01:00 +12°C° 0 mm 3 mps 757 mmHg 71%
    02:00 +12°C° 0 mm 3 mps 757 mmHg 72%
    03:00 +12°C° 0 mm 2 mps 757 mmHg 73%
    04:00 +12°C° 0 mm 2 mps 757 mmHg 74%
    05:00 +10°C° 0 mm 2 mps 757 mmHg 74%
    06:00 +10°C° 0 mm 2 mps 757 mmHg 75%
    07:00 +12°C° 0 mm 2 mps 757 mmHg 67%
    08:00 +14°C° 0 mm 2 mps 757 mmHg 60%
    09:00 +16°C° 0 mm 2 mps 758 mmHg 53%
    10:00 +18°C° 0 mm 3 mps 757 mmHg 46%
    11:00 +20°C° 0 mm 3 mps 757 mmHg 38%
    12:00 +22°C° 0 mm 3 mps 757 mmHg 31%
    13:00 +24°C° 0 mm 3 mps 756 mmHg 32%
    14:00 +25°C° 0 mm 3 mps 755 mmHg 32%
    15:00 +25°C° 0 mm 4 mps 755 mmHg 33%
    16:00 +22°C° 0 mm 4 mps 755 mmHg 40%
    17:00 +21°C° 0 mm 3 mps 755 mmHg 47%
    18:00 +19°C° 0 mm 3 mps 755 mmHg 54%
    19:00 +18°C° 0 mm 3 mps 756 mmHg 56%
    20:00 +17°C° 0 mm 3 mps 756 mmHg 58%
    21:00 +17°C° 0 mm 3 mps 757 mmHg 59%
    22:00 +16°C° 0 mm 3 mps 757 mmHg 56%
    23:00 +14°C° 0 mm 3 mps 758 mmHg 53%

    Day after tomorrow, 24 October, Tuesday

    Time Temperature Precipitation Wind Pressure Humidity
    00:00 +14°C° 0 mm 3 mps 758 mmHg 50%
    01:00 +13°C° 0 mm 4 mps 758 mmHg 47%
    02:00 +13°C° 0 mm 4 mps 758 mmHg 45%
    03:00 +12°C° 0 mm 4 mps 758 mmHg 43%
    04:00 +12°C° 0 mm 4 mps 758 mmHg 43%
    05:00 +11°C° 0 mm 4 mps 759 mmHg 43%
    06:00 +11°C° 0 mm 4 mps 759 mmHg 43%
    07:00 +12°C° 0 mm 4 mps 759 mmHg 41%
    08:00 +14°C° 0 mm 5 mps 759 mmHg 38%
    09:00 +15°C° 0 mm 6 mps 760 mmHg 36%
    10:00 +16°C° 0 mm 6 mps 759 mmHg 34%
    11:00 +17°C° 0 mm 6 mps 759 mmHg 31%
    12:00 +18°C° 0 mm 7 mps 758 mmHg 29%
    13:00 +18°C° 0 mm 7 mps 758 mmHg 30%
    14:00 +18°C° 0 mm 7 mps 757 mmHg 31%
    15:00 +18°C° 0 mm 7 mps 757 mmHg 31%
    16:00 +16°C° 0 mm 6 mps 757 mmHg 36%
    17:00 +15°C° 0 mm 4 mps 757 mmHg 40%
    18:00 +13°C° 0 mm 3 mps 758 mmHg 45%
    19:00 +12°C° 0 mm 3 mps 758 mmHg 47%
    20:00 +11°C° 0 mm 3 mps 759 mmHg 50%
    21:00 +10°C° 0 mm 2 mps 759 mmHg 52%
    22:00 +10°C° 0 mm 2 mps 759 mmHg 54%
    23:00 +9°C° 0 mm 2 mps 759 mmHg 56%

    25 October, Wednesday

    Time Temperature Precipitation Wind Pressure Humidity
    00:00 +9°C° 0 mm 2 mps 759 mmHg 58%
    01:00 +8°C° 0 mm 2 mps 759 mmHg 60%
    02:00 +8°C° 0 mm 2 mps 759 mmHg 61%
    03:00 +7°C° 0 mm 2 mps 758 mmHg 63%
    04:00 +7°C° 0 mm 2 mps 758 mmHg 64%
    05:00 +7°C° 0 mm 2 mps 758 mmHg 64%
    06:00 +6°C° 0 mm 2 mps 758 mmHg 65%
    07:00 +8°C° 0 mm 2 mps 758 mmHg 58%
    08:00 +10°C° 0 mm 3 mps 758 mmHg 52%
    09:00 +12°C° 0 mm 3 mps 758 mmHg 45%
    10:00 +14°C° 0 mm 4 mps 757 mmHg 40%
    11:00 +17°C° 0 mm 4 mps 756 mmHg 35%
    12:00 +19°C° 0 mm 5 mps 755 mmHg 30%
    13:00 +20°C° 0 mm 5 mps 754 mmHg 30%
    14:00 +21°C° 0 mm 5 mps 753 mmHg 30%
    15:00 +21°C° 0 mm 5 mps 753 mmHg 30%
    16:00 +20°C° 0 mm 4 mps 752 mmHg 36%
    17:00 +18°C° 0 mm 4 mps 752 mmHg 42%
    18:00 +16°C° 0 mm 3 mps 752 mmHg 48%
    19:00 +16°C° 0 mm 3 mps 752 mmHg 49%
    20:00 +14°C° 0 mm 3 mps 752 mmHg 50%
    21:00 +14°C° 0 mm 3 mps 752 mmHg 51%
    22:00 +13°C° 0 mm 3 mps 752 mmHg 53%
    23:00 +13°C° 0 mm 3 mps 751 mmHg 55%

    26 October, Thursday

    Time Temperature Precipitation Wind Pressure Humidity
    00:00 +13°C° 0 mm 3 mps 751 mmHg 56%
    01:00 +12°C° 0 mm 3 mps 751 mmHg 58%
    02:00 +12°C° 0 mm 3 mps 751 mmHg 60%
    03:00 +12°C° 0 mm 2 mps 751 mmHg 61%
    04:00 +12°C° 0 mm 2 mps 751 mmHg 62%
    05:00 +12°C° 0 mm 2 mps 751 mmHg 63%
    06:00 +12°C° 0 mm 2 mps 751 mmHg 65%
    07:00 +12°C° 0 mm 3 mps 751 mmHg 60%
    08:00 +14°C° 0 mm 3 mps 751 mmHg 55%
    09:00 +17°C° 0 mm 4 mps 751 mmHg 50%
    10:00 +20°C° 0 mm 4 mps 751 mmHg 46%
    11:00 +22°C° 0 mm 4 mps 750 mmHg 41%
    12:00 +25°C° 0 mm 4 mps 750 mmHg 36%
    13:00 +26°C° 0 mm 5 mps 749 mmHg 35%
    14:00 +26°C° 0 mm 5 mps 749 mmHg 34%
    15:00 +27°C° 0 mm 5 mps 748 mmHg 33%
    16:00 +25°C° 0 mm 4 mps 748 mmHg 39%
    17:00 +22°C° 0 mm 4 mps 749 mmHg 44%
    18:00 +20°C° 0 mm 3 mps 749 mmHg 50%
    19:00 +19°C° 0 mm 3 mps 749 mmHg 53%
    20:00 +18°C° 0 mm 3 mps 749 mmHg 55%
    21:00 +18°C° 0 mm 3 mps 749 mmHg 58%
    22:00 +18°C° 0 mm 4 mps 749 mmHg 60%
    23:00 +17°C° 0 mm 4 mps 749 mmHg 63%

    27 October, Friday

    Time Temperature Precipitation Wind Pressure Humidity
    00:00 +17°C° 0 mm 4 mps 749 mmHg 65%
    01:00 +17°C° 0 mm 4 mps 749 mmHg 69%
    02:00 +17°C° 0 mm 3 mps 749 mmHg 74%
    03:00 +17°C° 0 mm 3 mps 749 mmHg 78%
    04:00 +17°C° 0.2 mm 2 mps 749 mmHg 81%
    05:00 +16°C° 0.2 mm 2 mps 749 mmHg 84%
    06:00 +16°C° 0.2 mm 2 mps 749 mmHg 88%
    07:00 +16°C° 0.8 mm 3 mps 750 mmHg 88%
    08:00 +15°C° 0.8 mm 4 mps 750 mmHg 89%
    09:00 +15°C° 0.8 mm 4 mps 751 mmHg 89%
    10:00 +13°C° 0.9 mm 5 mps 751 mmHg 88%
    11:00 +10°C° 0.9 mm 5 mps 751 mmHg 87%
    12:00 +8°C° 0.9 mm 5 mps 751 mmHg 85%
    13:00 +8°C° 0.2 mm 5 mps 752 mmHg 81%
    14:00 +9°C° 0.2 mm 5 mps 752 mmHg 77%
    15:00 +9°C° 0.2 mm 5 mps 752 mmHg 73%
    16:00 +10°C° 0 mm 4 mps 753 mmHg 71%
    17:00 +10°C° 0 mm 3 mps 754 mmHg 69%
    18:00 +9°C° 0 mm 2 mps 754 mmHg 67%
    19:00 +8°C° 0 mm 2 mps 755 mmHg 65%
    20:00 +8°C° 0 mm 3 mps 755 mmHg 63%
    21:00 +7°C° 0 mm 3 mps 756 mmHg 61%
    22:00 +5°C° 0 mm 3 mps 756 mmHg 61%
    23:00 +5°C° 0 mm 3 mps 756 mmHg 60%
    Show more